Wind_Speed
20 22 24 25 26 25 25 24 24 24 26 27 27 27 28 29 30 30 30 30 30 32 31 33 32 34 35 35 37 40 41 43 48 39 36 34 34 36 36 36 34 37 35
23 26 27 29 30 31 30 28 27 27 28 29 29 30 30 30 31 32 32 33 33 33 34 35 33 35 35 37 38 39 40 41 46 47 39 37 35 36 38 37 35 35 37
26 28 29 33 34 34 32 32 32 32 32 31 32 32 32 32 33 33 35 35 35 35 35 35 34 36 35 35 36 37 38 41 45 47 47 40 39 35 39 39 36 35 37
28 30 31 34 37 37 34 31 29 28 29 32 33 34 34 35 36 36 38 39 38 37 36 37 37 37 38 39 41 41 42 44 44 48 48 46 43 40 40 36 41 37 36
30 33 36 38 40 40 36 33 30 30 30 31 33 35 37 38 39 40 42 43 44 43 42 42 40 40 40 41 43 44 45 44 42 45 48 47 44 42 44 41 42 40 39
32 36 39 43 44 44 38 33 32 32 32 32 33 35 37 40 41 43 45 47 47 47 47 46 45 44 44 45 45 47 48 48 50 51 51 52 49 43 46 47 52 42 46
36 39 43 46 47 47 39 36 35 33 33 33 33 35 37 39 40 42 45 49 49 49 49 50 51 49 48 47 46 49 52 56 56 52 54 51 49 47 48 48 47 47 40
39 41 46 49 50 47 41 37 35 34 33 33 34 35 37 36 39 42 45 48 50 49 48 48 49 48 48 53 55 55 57 60 58 58 56 46 44 45 46 44 46 49 44
41 44 48 51 50 46 41 36 35 35 34 35 35 35 37 36 39 41 45 48 49 47 46 46 46 46 47 47 51 54 54 53 48 48 44 47 50 45 43 39 41 43 47
42 47 51 53 49 43 39 37 37 38 37 37 36 37 39 41 41 42 44 46 47 45 42 40 40 42 46 49 49 45 40 39 37 43 48 45 40 37 38 39 33 35 36
45 49 52 50 46 43 39 39 38 38 38 39 40 39 41 43 42 41 42 43 43 41 38 36 37 40 43 42 38 37 38 38 39 37 36 36 31 31 32 32 32 31 29
47 49 52 47 44 42 40 39 38 39 40 41 42 42 42 41 40 39 40 41 40 38 36 34 34 35 36 35 35 35 36 33 32 31 29 27 24 26 25 26 30 30 28
48 51 51 46 43 41 39 38 38 40 42 42 43 42 40 39 40 41 40 37 36 34 33 33 33 33 31 28 25 25 31 30 30 28 29 25 23 22 24 27 27 24 29
50 52 51 45 40 38 37 39 41 41 42 42 42 42 43 43 41 39 36 35 33 32 32 33 30 29 29 33 34 35 37 38 38 35 34 28 24 27 25 24 25 24 26
52 52 46 41 38 37 38 39 40 40 41 42 43 44 43 41 39 37 35 32 31 31 28 25 27 29 32 30 30 32 34 33 32 31 32 29 26 26 28 26 26 25 26
53 46 39 37 36 37 38 36 37 39 40 42 45 44 42 40 37 35 33 31 27 23 26 27 27 29 30 30 31 32 31 31 32 31 29 28 28 26 25 29 28 26 25
46 37 36 36 35 35 36 37 36 37 40 43 44 42 39 36 35 33 29 25 24 24 24 26 27 27 29 31 32 33 33 33 33 31 30 29 29 31 31 28 29 28 26
35 34 34 33 33 34 35 36 36 37 42 43 42 38 36 35 32 29 24 23 24 24 23 24 27 29 32 35 36 38 39 38 37 33 31 29 29 29 27 26 26 27 26
32 32 31 31 31 33 35 34 35 38 42 41 37 34 32 28 27 24 23 22 22 21 23 26 29 31 35 38 42 42 40 37 33 31 28 27 28 28 27 26 26 25 24
30 29 29 29 31 34 34 32 34 37 40 39 35 31 27 24 21 22 22 22 20 23 24 27 30 34 37 43 44 45 43 40 37 34 30 25 26 28 28 26 25 25 26
28 27 27 28 30 34 35 31 33 35 39 36 33 29 26 22 20 19 20 20 21 24 26 28 31 36 40 44 45 45 40 36 31 30 28 29 26 26 27 25 24 24 26
25 24 24 26 31 34 34 32 32 33 37 34 29 28 23 21 18 19 19 21 23 24 27 30 33 37 43 46 46 43 37 33 29 27 24 23 26 27 27 26 24 23 25
23 24 26 28 32 34 34 31 30 30 33 31 29 25 22 19 18 19 19 21 23 24 27 30 34 38 43 46 45 41 36 32 27 25 23 21 21 26 29 28 26 23 24
25 26 30 32 34 33 30 29 29 27 29 28 25 24 20 18 19 19 20 21 23 24 28 31 34 39 43 46 44 39 34 30 26 22 21 21 19 21 27 30 28 25 23
28 30 30 31 31 29 28 27 29 26 24 25 25 23 19 20 21 19 20 21 22 24 28 31 34 39 43 45 43 37 32 27 24 22 20 19 18 18 22 28 28 26 24
29 29 29 28 27 26 26 26 27 27 25 25 25 22 21 22 22 21 21 22 23 25 28 31 34 38 42 45 41 36 30 26 23 21 21 18 17 18 20 26 25 25 24
Wind_Direction
349 342 337 332 326 321 318 312 309 306 302 300 298 296 297 298 298 298 299 298 296 294 294 293 292 289 288 288 286 286 287 288 289 290 285 282 281 284 284 281 281 284 282
345 341 341 340 334 327 319 313 311 309 305 301 297 295 295 295 295 298 298 297 295 294 293 291 292 289 290 289 288 287 287 287 287 290 286 285 280 280 282 283 280 278 281
342 339 339 339 336 331 321 313 309 307 304 300 296 293 293 294 295 296 296 296 296 295 295 295 294 291 290 287 286 286 287 287 288 289 291 287 284 279 277 279 279 280 279
338 334 333 334 336 335 328 319 316 312 307 300 294 290 290 291 293 294 294 295 295 296 296 296 294 292 290 289 290 290 288 286 286 287 288 289 287 283 275 274 276 275 271
332 329 329 331 331 332 328 319 313 311 305 299 294 291 290 292 293 294 295 296 295 295 296 295 293 291 290 288 287 287 287 286 287 289 289 290 289 284 280 268 262 275 269
326 325 325 327 330 330 325 320 312 308 305 302 297 294 294 294 294 295 294 293 293 294 294 291 289 287 284 281 281 281 283 287 288 288 287 286 285 281 276 268 265 263 270
323 322 324 326 328 326 322 317 312 307 303 299 298 297 295 294 293 293 292 292 292 291 289 288 287 287 286 285 284 282 282 286 284 281 282 289 291 292 288 280 260 260 263
318 321 323 323 323 322 318 315 311 308 306 308 307 305 303 302 298 296 293 292 292 292 293 291 289 289 288 286 286 286 288 288 287 286 291 290 288 290 291 276 266 261 261
314 319 320 319 321 319 316 315 313 311 311 309 308 307 305 304 298 296 295 295 296 295 292 291 290 291 290 287 287 288 293 298 291 290 288 287 292 289 285 271 260 264 261
312 316 318 320 321 317 316 313 311 311 311 310 308 309 308 306 305 304 303 300 299 301 303 301 298 295 292 293 298 302 304 304 287 284 287 287 284 283 281 277 265 264 261
310 314 317 321 317 315 316 314 313 312 312 312 312 311 309 308 308 305 303 301 302 305 306 303 299 296 296 301 304 305 305 302 302 301 290 286 283 281 277 270 268 269 265
308 313 318 318 314 313 314 313 313 312 313 313 311 311 310 310 308 306 305 305 307 307 306 303 301 300 303 304 302 301 306 303 302 299 305 295 288 280 273 270 269 271 265
309 314 318 315 311 311 312 312 313 312 312 311 310 310 311 310 309 309 312 312 309 309 307 304 306 307 308 310 311 307 309 306 300 301 304 300 298 287 277 271 272 271 268
309 314 314 310 308 308 310 312 312 312 312 311 312 312 312 313 315 316 315 312 312 309 308 312 313 311 311 307 304 300 299 296 291 288 289 292 283 288 281 272 270 266 265
311 313 310 307 306 308 310 311 311 311 311 312 312 312 315 318 317 314 311 312 310 308 312 312 313 312 312 312 309 306 302 300 299 297 291 283 273 282 285 278 270 264 265
311 308 304 302 304 307 309 309 309 310 312 311 311 316 318 317 315 315 315 313 310 315 314 315 316 316 315 316 314 310 306 301 298 294 292 288 272 265 274 278 273 270 265
305 300 300 301 303 305 306 308 310 312 312 314 317 317 318 317 315 314 313 312 314 316 317 320 322 321 319 318 316 314 311 305 299 294 289 284 281 272 268 264 269 271 269
296 296 299 301 303 305 306 308 312 315 317 319 318 318 318 316 315 313 312 314 317 318 321 324 322 322 322 321 319 316 311 304 297 291 283 278 274 275 268 262 261 266 267
294 298 299 301 303 304 306 309 313 316 319 319 316 315 314 314 312 310 312 316 318 319 322 323 323 323 324 323 322 318 314 308 301 293 288 274 268 268 269 260 256 258 261
295 295 297 301 304 304 304 308 313 317 318 319 314 312 309 309 304 306 310 314 316 317 319 322 324 325 327 326 324 319 313 306 296 286 280 278 268 260 261 261 250 249 252
292 294 300 304 305 303 302 306 313 320 322 317 312 309 307 303 302 304 308 310 313 316 321 323 326 328 328 328 326 322 317 311 304 294 282 268 262 257 254 255 253 244 246
292 296 301 306 302 300 302 301 308 321 321 317 312 307 302 300 301 306 308 309 313 319 323 325 328 330 332 331 330 327 322 313 305 297 289 277 258 249 247 247 248 244 244
288 294 298 298 297 297 298 299 307 323 323 317 311 305 301 297 301 306 308 311 315 321 325 327 330 333 334 334 333 330 325 317 307 298 291 283 272 252 242 240 242 242 237
288 289 290 294 296 296 298 299 305 317 321 317 311 305 298 295 301 304 307 311 316 326 328 330 333 336 337 336 335 332 326 318 311 302 294 287 277 262 243 235 234 239 234
285 288 291 295 299 300 300 301 308 315 317 314 311 305 295 299 301 301 304 309 318 327 329 332 335 337 338 338 336 333 327 319 312 305 298 290 281 267 248 232 229 233 236
289 292 294 298 301 304 308 312 315 316 313 311 311 301 293 298 300 298 301 308 317 326 330 334 337 337 339 339 338 334 328 319 313 304 298 293 283 271 252 223 222 224 232
Height
3176 3173 3171 3167 3164 3160 3156 3152 3149 3145 3141 3138 3135 3132 3128 3125 3121 3118 3115 3112 3109 3105 3102 3098 3095 3091 3088 3086 3083 3079 3075 3072 3063 3069 3070 3068 3063 3062 3061 3057 3057 3055 3054
3172 3169 3166 3163 3159 3155 3151 3147 3143 3139 3135 3132 3128 3125 3122 3118 3114 3112 3108 3104 3101 3098 3094 3090 3088 3084 3081 3077 3074 3070 3066 3063 3057 3052 3058 3058 3056 3053 3050 3048 3046 3044 3044
3168 3164 3161 3157 3153 3148 3143 3139 3136 3132 3128 3125 3121 3118 3115 3111 3108 3104 3100 3096 3093 3090 3087 3083 3080 3074 3071 3066 3062 3059 3058 3053 3049 3044 3042 3046 3044 3044 3040 3038 3037 3035 3033
3162 3159 3155 3152 3147 3142 3137 3132 3128 3124 3121 3117 3113 3111 3107 3103 3099 3095 3091 3087 3083 3080 3077 3074 3071 3066 3062 3059 3056 3052 3046 3041 3039 3034 3032 3032 3032 3032 3030 3028 3024 3024 3022
3157 3152 3148 3145 3140 3135 3129 3125 3121 3116 3112 3108 3105 3102 3098 3094 3091 3086 3082 3078 3073 3070 3068 3065 3060 3056 3052 3048 3043 3040 3036 3031 3027 3024 3021 3019 3019 3018 3019 3017 3011 3010 3012
3151 3146 3141 3137 3132 3127 3122 3116 3112 3108 3103 3100 3096 3092 3089 3086 3082 3077 3073 3068 3064 3061 3057 3052 3048 3043 3039 3034 3030 3027 3025 3021 3018 3013 3010 3007 3005 3003 3002 3002 3000 2995 2998
3143 3139 3134 3129 3124 3118 3113 3108 3103 3099 3095 3090 3087 3083 3080 3077 3072 3067 3062 3055 3052 3049 3044 3040 3036 3034 3030 3025 3021 3015 3011 3007 3004 3001 2995 2994 2991 2991 2986 2985 2985 2983 2984
3136 3133 3127 3121 3115 3110 3105 3099 3094 3090 3085 3081 3078 3074 3069 3066 3061 3054 3048 3042 3037 3035 3031 3026 3021 3019 3016 3010 3005 3003 2999 2993 2989 2983 2980 2981 2979 2977 2974 2973 2972 2971 2971
3129 3125 3119 3113 3107 3101 3096 3090 3086 3081 3077 3072 3069 3064 3059 3056 3049 3043 3036 3031 3026 3021 3017 3014 3010 3007 3004 2997 2992 2989 2986 2983 2977 2973 2970 2967 2964 2963 2962 2960 2960 2959 2959
3121 3117 3111 3105 3098 3092 3087 3082 3078 3073 3069 3064 3058 3054 3049 3043 3039 3033 3026 3019 3014 3010 3005 3000 2997 2993 2989 2985 2979 2977 2972 2970 2965 2964 2961 2956 2953 2951 2949 2947 2949 2949 2948
3114 3109 3103 3096 3089 3083 3080 3074 3070 3065 3060 3055 3049 3045 3039 3032 3027 3021 3015 3009 3004 2999 2995 2991 2987 2983 2977 2975 2970 2966 2962 2959 2954 2949 2946 2943 2942 2940 2940 2939 2939 2939 2940
3105 3099 3093 3087 3081 3076 3071 3066 3061 3055 3050 3045 3040 3035 3029 3022 3016 3010 3004 2997 2993 2990 2985 2981 2975 2972 2968 2965 2961 2957 2953 2948 2944 2940 2938 2937 2934 2933 2931 2929 2929 2930 2931
3095 3089 3082 3078 3072 3066 3061 3056 3052 3046 3040 3036 3031 3025 3018 3011 3006 3000 2995 2990 2984 2978 2975 2971 2968 2964 2960 2955 2950 2947 2944 2940 2937 2934 2931 2930 2927 2925 2923 2922 2921 2922 2923
3083 3077 3072 3068 3063 3058 3053 3047 3042 3037 3032 3027 3021 3016 3009 3002 2995 2989 2985 2980 2975 2970 2965 2962 2959 2955 2952 2947 2943 2940 2936 2931 2928 2925 2922 2921 2920 2918 2916 2915 2914 2914 2915
3072 3066 3061 3057 3052 3048 3043 3038 3032 3028 3022 3016 3010 3003 2998 2993 2987 2981 2975 2970 2968 2965 2959 2955 2952 2949 2945 2940 2936 2931 2927 2923 2920 2916 2913 2911 2911 2910 2909 2907 2907 2906 2907
3061 3055 3051 3047 3043 3038 3034 3030 3024 3018 3012 3006 3000 2994 2988 2982 2977 2971 2968 2964 2959 2956 2955 2950 2945 2942 2938 2933 2929 2924 2919 2915 2911 2908 2905 2903 2901 2901 2901 2901 2899 2899 2900
3049 3045 3041 3037 3033 3029 3025 3020 3015 3009 3001 2995 2989 2985 2979 2975 2970 2965 2960 2956 2953 2948 2946 2943 2939 2935 2932 2926 2922 2917 2911 2906 2902 2898 2896 2894 2892 2891 2891 2891 2892 2891 2892
3038 3034 3030 3028 3024 3020 3015 3010 3005 2999 2993 2986 2980 2976 2972 2968 2963 2958 2954 2949 2947 2944 2939 2936 2933 2928 2923 2918 2913 2907 2901 2896 2890 2886 2885 2883 2883 2881 2881 2882 2883 2884 2885
3028 3025 3021 3018 3014 3011 3006 3002 2997 2991 2983 2978 2972 2966 2961 2957 2954 2952 2949 2944 2942 2939 2934 2930 2926 2921 2915 2909 2902 2896 2889 2883 2879 2875 2873 2872 2871 2871 2872 2873 2875 2876 2877
3018 3015 3012 3009 3005 3001 2997 2993 2989 2982 2976 2970 2965 2960 2955 2948 2945 2945 2944 2938 2933 2932 2929 2924 2920 2914 2906 2899 2892 2884 2877 2872 2867 2864 2862 2861 2862 2861 2862 2864 2866 2868 2869
3008 3006 3004 3001 2998 2992 2988 2984 2981 2974 2968 2961 2958 2952 2950 2945 2941 2938 2936 2934 2929 2925 2922 2918 2913 2906 2898 2890 2882 2873 2865 2859 2854 2851 2849 2850 2851 2852 2853 2854 2857 2859 2861
3000 2998 2995 2992 2989 2984 2980 2975 2972 2964 2960 2956 2947 2945 2941 2939 2935 2932 2930 2928 2924 2919 2915 2911 2905 2898 2890 2881 2872 2863 2856 2850 2845 2842 2839 2839 2839 2842 2843 2845 2848 2851 2853
2990 2989 2986 2982 2977 2972 2969 2965 2963 2956 2951 2948 2942 2938 2935 2930 2929 2927 2925 2923 2919 2913 2909 2904 2897 2890 2882 2873 2864 2854 2847 2842 2837 2834 2831 2830 2830 2832 2834 2836 2839 2842 2846
2981 2978 2977 2973 2968 2965 2961 2957 2954 2947 2942 2939 2935 2932 2929 2926 2923 2921 2920 2917 2913 2908 2903 2897 2890 2883 2875 2866 2857 2848 2841 2835 2831 2827 2824 2822 2822 2823 2824 2827 2831 2834 2838
2972 2969 2964 2962 2960 2956 2953 2949 2945 2940 2936 2933 2930 2927 2925 2922 2920 2916 2915 2912 2907 2902 2897 2891 2884 2877 2869 2860 2850 2842 2835 2830 2825 2821 2818 2816 2815 2815 2815 2818 2822 2827 2830
2962 2959 2956 2953 2952 2948 2947 2942 2940 2935 2931 2926 2923 2921 2920 2917 2914 2912 2909 2906 2901 2896 2891 2884 2877 2871 2863 2854 2845 2836 2830 2825 2820 2816 2812 2810 2809 2808 2808 2811 2816 2821 2824